Location: Artiguedieu
(43.5000°N, 0.5454°E)
Time: 13:07:32
(UTC+00:00)

Cosmos 2366 rocket - Pass Details

Date: 06 December 2020
Orbit: 955 x 997 km, 82.9° (Epoch: 27 January)

Event Time Altitude Azimuth Distance (km) Brightness Sun altitude
Rises 05:57:37 0° 186° (S) 3,691 7.2 -13.8°
Reaches altitude 10° 06:00:08 10° 187° (S) 2,742 6.5 -13.4°
Maximum altitude 06:06:26 88° 278° (W) 989 4.0 -12.3°
Drops below altitude 10° 06:12:44 10° 8° (N) 2,732 6.2 -11.2°
Sets 06:15:14 0° 8° (N) 3,677 6.9 -10.8°
